Regional Weather Roundup
Issued by NWS Newport/Morehead, NC

Current Version | Previous Version | Text Only | Print | Product List | Glossary Off
Versions: 1 2 3 4 5 6 7 8 9 10 11 12 13 14 15 16 17 18 19 20 21 22 23 24 25 26 27 28 29 30 31 32 33 34 35 36 37 38 39 40 41 42 43 44 45 46 47 48 49 50

000
ASUS42 KMHX 290025
RWRMHX
WEATHER ROUNDUP FOR EASTERN NORTH CAROLINA
NATIONAL WEATHER SERVICE NEWPORT/MOREHEAD CITY NC
800 PM EDT WED SEP 28 2016

NOTE: "FAIR" INDICATES FEW OR NO CLOUDS BELOW 12,000 FEET
WITH NO SIGNIFICANT WEATHER AND/OR OBSTRUCTIONS TO VISIBILITY

NCZ015>017-031-032-045>047-102-103-290100-
NORTH COAST

CITY           SKY/WX    TMP DP  RH WIND       PRES   REMARKS
EDENTON        CLOUDY    77  69  76 SE9       29.99R
ELIZABETH CITY PTCLDY    75  69  81 SE8       29.98S
KITTY HAWK     CLEAR     74  73  95 SE7       29.99R
MANTEO         CLEAR     73  72  95 SE6       30.00R

$$

NCZ045>047-081-094-103-104-290100-
CENTRAL COAST

CITY           SKY/WX    TMP DP  RH WIND       PRES   REMARKS
FRISCO         CLEAR     75  71  87 E6        30.00R

$$

NCZ095-097-098-100-101-290100-
SOUTHERN COAST

CITY           SKY/WX    TMP DP  RH WIND       PRES   REMARKS
BEAUFORT       CLEAR     78  70  76 SE7       29.99R
CEDAR ISLAND   NOT AVBL
JACKSONVILLE   PTCLDY    76  71  85 CALM      29.97R
PINEY ISLAND   CLEAR    N/A N/A N/A SE6       29.99R
WILMINGTON     PTCLDY    77  70  79 S3        29.98R


$$

NCZ011>013-027>030-043-044-078>080-089-090>093-098-290100-
COASTAL PLAIN

CITY           SKY/WX    TMP DP  RH WIND       PRES   REMARKS
AHOSKIE        CLOUDY    73  71  95 S9        29.97R
CLINTON        PTCLDY    74  69  85 NW7       29.99R
ELIZABETHTOWN  CLEAR     77  73  87 SE7       29.96R
GOLDSBORO      CLOUDY    78  73  85 S2        29.96R
GREENVILLE     CLOUDY    79  72  78 S6        30.00R
HAVELOCK       PTCLDY    75  68  78 SE6       30.00R
KENANSVILLE    CLEAR     73  72  94 S3        29.98R
KINSTON        CLEAR     77  68  73 S8        29.98R
NEW BERN       CLEAR     76  70  82 CALM      30.00R
RICHLANDS      CLEAR     75  72  90 SE6       29.98R
ROCKY MOUNT    MOCLDY    73  73 100 CALM      29.96R
WASHINGTON     CLEAR     74  70  86 SE3       29.98R
WHITEVILLE     CLEAR     76  72  86 CALM      29.96R

$$

AMZ130-135-150-152-154-156-158-170-250-252-270-ANZ085-086-088-633-658-670-290100-
MARINE OBSERVATIONS

STATION/POSITION TIME  TEMP    WIND        PRES    WAVE   SWELL
                       AIR SEA DIR/SP/G            HT/PER HT/PER
                 (UTC) (F)     (DEG/KT/KT) (MB)    (FT/S) (FT/S)
CHESAPEAKE LIGHT NOT AVBL
64 E VA BEACH    2350   76 75  120/  4/  6 1015.5    5/ 7   5/ 7
DUCK             2354   76 77  130/ 11/ 13 1015.0
2 E DUCK         2341      77                N/A     3/11   2/11
OREGON INLET     2354   75 79  110/  4/  6 1015.9
13E OREGON INLT  0000      77                N/A     3/11   3/11
HATTERAS CG      2354   77 78  100/  5/  9 1015.6
DIAMOND BUOY     2350   80 84  120/  6/  8 1015.7    4/ 7   3/ 7
CAPE LOOKOUT     0000   80     140/  8/  9 1015.4
BEAUFORT LAB     2354   79 77  150/  7/  9 1014.9
30 SE NEW RVR IN 0008   81 83  160/ 10/ 14 1015.3
30 SE NEW RVR IN 2355      83                N/A     3/11   2/11
27 SE WRIGHTSVLE 0008   81 82  150/ 10/ 14 1015.1
5 SE WRIGHTSVLE  0008   80 81  190/ 10/ 14 1016.2
225 S CAPE HAT   2350   82 83  210/ 14/ 16 1015.6    5/ 6   3/11
41 SE CHARLESTON 2350   82 83  190/ 10/ 12 1013.4    2/11   2/11

$$




USA.gov is the U.S. government's official web portal to all federal, state and local government web resources and services.